Volver al catálogo

STARLINK-3392

ActivoComunicacionesVLEO
NORAD 51123·PAYLOAD·🇺🇸 United States

Lanzado Jan 19, 2022 desde Cape Canaveral Space Force Station

Loading…

Próximos Pases (próximas 24 horas)

TLE

ActualizadoSource: CelesTrak SupGP

Época: Sep 14, 2026, 22:14 UTC

1 51123C 22005V   26257.92687500 -.00022801  00000+0 -67386-3 0  2574
2 51123  53.1578 151.7084 0001178  89.3770 195.0729 15.34392615    13

Sigue STARLINK-3392 en tiempo real con AllMySat

Download on the App Store